Location: Newark
(48.6503°N, 29.5086°E)
Time: 10:55:54
(UTC+00:00)

Envisat - Visible Passes

Search period start: 23 September 2019 00:00
Search period end: 03 October 2019 00:00
Orbit: 764 x 766 km, 98.1° (Epoch: 23 September)

Date Brightness Start Highest point End Pass type
(mag) Time Alt. Az. Time Alt. Az. Time Alt. Az.
23 Sep 6.0 17:36:03 10° SW 17:39:02 16° W 17:42:03 10° NW visible
24 Sep 5.0 16:57:23 10° SSW 17:01:52 31° W 17:06:24 10° NNW visible
25 Sep 3.6 16:19:53 10° S 16:24:55 64° WSW 16:30:00 10° NNW visible
26 Sep 5.8 17:24:03 10° SW 17:27:39 19° W 17:31:15 10° NW visible
27 Sep 4.6 16:45:49 10° SSW 16:50:32 38° W 16:55:18 10° NNW visible
28 Sep 3.2 16:08:33 10° S 16:13:38 79° WSW 16:18:45 10° NNW visible
28 Sep 6.2 17:51:56 10° WSW 17:53:31 11° W 17:55:05 10° WNW visible
29 Sep 5.5 17:12:13 10° SW 17:16:16 24° W 17:20:20 10° NW visible
30 Sep 4.2 16:34:20 10° S 16:39:13 47° W 16:44:09 10° NNW visible
01 Oct 6.0 17:39:23 10° WSW 17:42:05 14° W 17:44:48 10° NW visible
02 Oct 5.1 17:00:31 10° SSW 17:04:54 29° W 17:09:19 10° NW visible
